Saint Paul Island, AK

8:48 PM AKDT on April 22, 2018 (GMT -0800)
Saint Paul Island

Weather History for PASN - August, 2013

Change the Weather History Date:

Saturday, August 3, 2013

  Actual Average Record
Temperature  
Mean Temperature 50 °F 49 °F  
Max Temperature 53 °F 52 °F 58 °F (1993)
Min Temperature 47 °F 45 °F 39 °F (1971)
Degree Days  
Heating Degree Days 15 16  
Month to date heating degree days 39 49  
Since 1 June heating degree days 1300 1279  
Since 1 July heating degree days 590 601  
Cooling Degree Days 0 0  
Month to date cooling degree days 0 0  
Year to date cooling degree days 0 0  
Since 1 June cooling degree days 0 0  
Moisture  
Dew Point 49 °F    
Average Humidity 0    
Maximum Humidity 0    
Minimum Humidity 0    
Precipitation  
Precipitation 0.01 in 0.08 in 0.80 in (1968)
Month to date precipitation 0.02 0.25  
Year to date precipitation 10.37 9.61  
Snow  
Snow 0.00 in 0.00 in - ()
Month to date snowfall 0.0 0.0  
Since 1 June snowfall 0.0 T  
Since 1 July snowfall 0.0 0.0  
Snow Depth 0.00 in    
Sea Level Pressure  
Sea Level Pressure 29.64 in    
Wind  
Wind Speed 11 mph (WSW)    
Max Wind Speed 17 mph    
Max Gust Speed 22 mph    
Visibility 4 miles    
Events Fog , Rain    
T = Trace of Precipitation, MM = Missing Value Source: NWS Daily Summary

Daily Weather History Graph

Daily Weather History Graph

Search for Another Location

Airport or City:

Astronomy

Aug. 03, 2013 Rise Set
Actual Time 7:23 AM AKDT 11:28 PM AKDT
Civil Twilight 6:33 AM AKDT 12:18 AM AKDT
Nautical Twilight 5:17 AM AKDT 1:33 AM AKDT
Astronomical Twilight 3:59 AM AKDT 2:54 AM AKDT
Moon 4:36 AM AKDT (8/3) 9:25 PM AKDT (8/3)
Length of Visible Light 17h 44m
Length of Day
16h 04m
Waning Crescent, 9% of the Moon is Illuminated
Aug 3
Waning Crescent
Aug 6
New
Aug 14
First Quarter
Aug 20
Full
Aug 28
Last Quarter

Hourly Weather History & Observations

Time (AKDT) Temp. Windchill Dew Point Humidity Pressure Visibility Wind Dir Wind Speed Gust Speed Precip Events Conditions
12:53 AM 50.0 °F - 50.0 °F 100% 29.61 in 1.2 mi NW 11.5 mph - N/A   Overcast
1:06 AM 50.0 °F - 50.0 °F 100% 29.61 in 0.5 mi NW 11.5 mph - N/A Fog Fog
1:21 AM 50.0 °F - 50.0 °F 100% 29.60 in 0.8 mi NW 15.0 mph - N/A   Mist
1:33 AM 50.0 °F - 50.0 °F 100% 29.60 in 1.8 mi NW 12.7 mph - N/A   Overcast
1:36 AM 50.0 °F - 50.0 °F 100% 29.61 in 3.0 mi NW 13.8 mph - N/A   Overcast
1:53 AM 50.0 °F - 50.0 °F 100% 29.62 in 9.0 mi WNW 13.8 mph - N/A   Overcast
2:36 AM 50.0 °F - 50.0 °F 100% 29.61 in 10.0 mi WNW 13.8 mph - N/A   Overcast
2:53 AM 48.9 °F - 48.9 °F 100% 29.62 in 10.0 mi WNW 12.7 mph - N/A   Overcast
3:44 AM 50.0 °F - 48.2 °F 94% 29.62 in 10.0 mi WNW 10.4 mph - N/A   Overcast
3:53 AM 48.9 °F - 48.9 °F 100% 29.62 in 10.0 mi NW 9.2 mph - N/A   Overcast
4:32 AM 48.2 °F - 48.2 °F 100% 29.62 in 2.0 mi West 8.1 mph - N/A   Overcast
4:53 AM 48.9 °F - 48.9 °F 100% 29.62 in 2.5 mi West 9.2 mph - 0.00 in Rain Light Rain
5:03 AM 48.2 °F - 48.2 °F 100% 29.62 in 1.0 mi WNW 8.1 mph - 0.00 in Rain Light Rain
5:25 AM 48.2 °F - 48.2 °F 100% 29.62 in 3.0 mi WNW 10.4 mph - 0.01 in   Overcast
5:36 AM 48.2 °F - 48.2 °F 100% 29.62 in 1.8 mi West 10.4 mph - 0.01 in   Overcast
5:44 AM 48.2 °F - 48.2 °F 100% 29.61 in 0.5 mi West 9.2 mph - 0.01 in Fog Fog
5:53 AM 48.9 °F - 48.9 °F 100% 29.62 in 0.8 mi WNW 10.4 mph - 0.01 in   Mist
6:01 AM 48.2 °F - 48.2 °F 100% 29.61 in 1.0 mi West 10.4 mph - N/A   Mist
6:14 AM 48.2 °F - 48.2 °F 100% 29.62 in 0.8 mi WNW 8.1 mph - N/A   Mist
6:39 AM 48.2 °F - 48.2 °F 100% 29.63 in 1.0 mi West 8.1 mph - 0.00 in   Mist
6:53 AM 48.9 °F - 48.9 °F 100% 29.62 in 1.8 mi West 6.9 mph - 0.00 in   Overcast
7:28 AM 48.2 °F - 48.2 °F 100% 29.62 in 3.0 mi West 10.4 mph - N/A   Overcast
7:44 AM 48.2 °F - 48.2 °F 100% 29.63 in 2.0 mi West 9.2 mph - N/A   Overcast
7:53 AM 48.0 °F - 48.0 °F 100% 29.63 in 7.0 mi West 11.5 mph - N/A   Mostly Cloudy
8:18 AM 48.2 °F - 48.2 °F 100% 29.62 in 0.5 mi West 10.4 mph - N/A Fog Fog
8:53 AM 46.9 °F - 46.9 °F 100% 29.63 in 0.2 mi West 11.5 mph - N/A Fog Fog
9:53 AM 46.9 °F - 46.9 °F 100% 29.64 in 0.5 mi West 8.1 mph - N/A Fog Fog
10:02 AM 46.4 °F 42.4 °F 46.4 °F 100% 29.63 in 1.0 mi West 8.1 mph - N/A   Overcast
10:11 AM 46.4 °F 41.5 °F 46.4 °F 100% 29.64 in 3.0 mi West 10.4 mph - N/A   Overcast
10:42 AM 48.2 °F - 48.2 °F 100% 29.65 in 1.8 mi West 9.2 mph - N/A   Overcast
10:53 AM 48.9 °F - 48.9 °F 100% 29.64 in 3.0 mi West 10.4 mph - N/A   Overcast
11:53 AM 48.9 °F - 48.9 °F 100% 29.65 in 6.0 mi WSW 9.2 mph - N/A   Overcast
12:53 PM 51.1 °F - 50.0 °F 96% 29.65 in 5.0 mi SW 10.4 mph - N/A   Overcast
1:03 PM 51.8 °F - 51.8 °F 100% 29.65 in 10.0 mi SSW 8.1 mph - N/A   Overcast
1:10 PM 51.8 °F - 50.0 °F 94% 29.65 in 6.0 mi SSW 9.2 mph - N/A   Overcast
1:16 PM 50.0 °F - 48.2 °F 94% 29.64 in 1.8 mi SSW 10.4 mph - N/A   Overcast
1:22 PM 48.2 °F - 48.2 °F 100% 29.65 in 3.0 mi SSW 10.4 mph - N/A   Overcast
1:53 PM 50.0 °F - 50.0 °F 100% 29.65 in 2.5 mi SSW 12.7 mph - N/A   Overcast
2:04 PM 50.0 °F - 50.0 °F 100% 29.65 in 1.0 mi SSW 12.7 mph - N/A   Overcast
2:22 PM 50.0 °F - 50.0 °F 100% 29.65 in 2.0 mi SSW 11.5 mph - N/A   Overcast
2:38 PM 51.8 °F - 48.2 °F 88% 29.66 in 5.0 mi SSW 11.5 mph - N/A   Overcast
2:53 PM 52.0 °F - 50.0 °F 93% 29.65 in 10.0 mi SSW 11.5 mph - N/A   Overcast
3:03 PM 51.8 °F - 48.2 °F 88% 29.65 in 1.8 mi SSW 10.4 mph - N/A   Overcast
3:11 PM 50.0 °F - 48.2 °F 94% 29.65 in 0.5 mi SSW 11.5 mph - N/A Fog Fog
3:39 PM 50.0 °F - 50.0 °F 100% 29.65 in 1.0 mi SSW 10.4 mph - N/A   Mist
3:53 PM 50.0 °F - 48.9 °F 96% 29.66 in 1.2 mi SSW 12.7 mph - N/A   Overcast
4:08 PM 48.2 °F - 48.2 °F 100% 29.65 in 0.8 mi SSW 11.5 mph - N/A   Mist
4:21 PM 50.0 °F - 48.2 °F 94% 29.66 in 2.0 mi SSW 11.5 mph - N/A   Overcast
4:29 PM 50.0 °F - 48.2 °F 94% 29.65 in 4.0 mi SSW 11.5 mph - N/A   Overcast
4:53 PM 50.0 °F - 48.9 °F 96% 29.66 in 2.0 mi SSW 10.4 mph - N/A   Overcast
4:59 PM 48.2 °F - 48.2 °F 100% 29.66 in 0.8 mi SSW 9.2 mph - N/A   Mist
5:08 PM 48.2 °F - 48.2 °F 100% 29.65 in 0.5 mi SSW 11.5 mph - N/A Fog Fog
5:49 PM 48.2 °F - 48.2 °F 100% 29.65 in 0.8 mi SSW 11.5 mph - N/A   Mist
5:53 PM 48.0 °F - 48.0 °F 100% 29.65 in 0.8 mi SSW 9.2 mph - N/A   Mist
6:01 PM 48.2 °F - 48.2 °F 100% 29.64 in 1.5 mi SSW 12.7 mph - N/A   Overcast
6:28 PM 50.0 °F - 48.2 °F 94% 29.65 in 3.0 mi SSW 12.7 mph - N/A   Overcast
6:53 PM 51.1 °F - 50.0 °F 96% 29.65 in 5.0 mi SW 15.0 mph - N/A   Overcast
7:53 PM 51.1 °F - 50.0 °F 96% 29.65 in 4.0 mi SW 15.0 mph - N/A   Overcast
8:30 PM 50.0 °F - 50.0 °F 100% 29.65 in 1.8 mi SW 12.7 mph 18.4 mph N/A   Overcast
8:53 PM 50.0 °F - 50.0 °F 100% 29.65 in 3.0 mi WSW 13.8 mph - N/A   Overcast
9:29 PM 51.8 °F - 50.0 °F 94% 29.65 in 10.0 mi WSW 11.5 mph - N/A   Overcast
9:53 PM 50.0 °F - 48.9 °F 96% 29.67 in 10.0 mi WSW 12.7 mph - N/A   Overcast
10:53 PM 48.9 °F - 48.0 °F 97% 29.68 in 10.0 mi SW 8.1 mph - N/A   Overcast
11:06 PM 48.2 °F - 48.2 °F 100% 29.68 in 10.0 mi SW 9.2 mph - N/A   Overcast
11:53 PM 48.0 °F - 48.0 °F 100% 29.69 in 10.0 mi WSW 11.5 mph - N/A   Overcast